contact:dominique.lefevre@mio.osupytheas.fr, maurice.libes@osupytheas.fr, didier.mallarino@osupytheas.fr
Project:EMSO http://www.emso-fr.org/EMSO-France
Depth: 2436.0 m
Title:EMSO Ligure Ouest : Data MII capteur AQUADOPP
Date,Latitude,Longitude,X_East,Y_North,Z_Up,Amplitude_X,Amplitude_Y,Amplitude_Z,Batterie,SoundSpeed,Heading,Pitch,Roll,Pressure,TIS,Speed,Direction
, degrees North, degrees East, m.s-1, m.s-1,m.s-1, 1, 1, 1, Volt, m.s-1, degree, degree, degree, dbar, degree_C, m.s-1, degree
2023-02-10T00:04:03,42.805,6.029,-0.023,-0.001,-0.018,103.0,102.0,102.0,13.4,1505.2,330.3,-0.8,1.8,2471.24,13.29,0.023,267.5
2023-02-10T00:07:03,42.805,6.029,-0.006,0.004,0.01,103.0,103.0,100.0,13.4,1505.2,323.6,-0.8,1.8,2471.2,13.29,0.007,303.7
2023-02-10T00:10:03,42.805,6.029,-0.022,-0.002,0.011,103.0,102.0,101.0,13.4,1505.2,333.8,-0.8,1.8,2471.215,13.29,0.022,264.8
2023-02-10T00:13:03,42.805,6.029,-0.03,-0.005,0.016,102.0,103.0,102.0,13.4,1505.2,318.3,-0.7,1.9,2471.163,13.29,0.03,260.5
2023-02-10T00:16:03,42.805,6.029,-0.031,0.014,0.021,103.0,102.0,102.0,13.4,1505.2,323.6,-0.8,1.8,2471.142,13.29,0.034,294.3
2023-02-10T00:19:03,42.805,6.029,-0.024,0.027,0.014,104.0,103.0,100.0,13.3,1505.2,336.4,-0.8,1.8,2471.135,13.29,0.036,318.4
2023-02-10T00:22:03,42.805,6.029,-0.015,0.002,-0.007,104.0,102.0,102.0,13.3,1505.2,316.1,-0.8,1.8,2471.175,13.29,0.015,277.6
2023-02-10T00:25:03,42.805,6.029,-0.018,-0.001,-0.008,102.0,103.0,102.0,13.4,1505.2,318.7,-0.8,1.8,2471.17,13.29,0.018,266.8
2023-02-10T00:28:03,42.805,6.029,-0.018,-0.007,-0.027,103.0,102.0,102.0,13.4,1505.2,322.6,-0.7,1.8,2471.118,13.29,0.019,248.8
2023-02-10T00:31:03,42.805,6.029,-0.027,0.017,0.03,102.0,104.0,101.0,13.3,1505.2,335.4,-0.8,1.8,2471.134,13.29,0.031,302.2
2023-02-10T00:34:03,42.805,6.029,-0.014,-0.01,-0.037,105.0,103.0,102.0,13.4,1505.2,322.9,-0.8,1.8,2471.117,13.29,0.017,234.5
2023-02-10T00:37:03,42.805,6.029,-0.008,0.013,0.001,103.0,103.0,101.0,13.3,1505.2,331.3,-0.8,1.8,2471.15,13.29,0.015,328.4
2023-02-10T00:40:03,42.805,6.029,-0.036,0.025,0.009,102.0,104.0,102.0,13.3,1505.2,317.6,-0.7,1.8,2471.136,13.29,0.043,304.8
2023-02-10T00:43:03,42.805,6.029,-0.033,0.01,-0.025,104.0,102.0,103.0,13.3,1505.2,323.4,-0.7,1.8,2471.097,13.29,0.034,286.9
2023-02-10T00:46:03,42.805,6.029,-0.028,0.002,0.003,104.0,103.0,102.0,13.4,1505.2,328.2,-0.7,1.8,2471.11,13.29,0.028,274.1
2023-02-10T00:49:03,42.805,6.029,-0.015,0.023,-0.002,103.0,103.0,102.0,13.3,1505.2,339.2,-0.8,1.8,2471.123,13.29,0.027,326.9
2023-02-10T00:52:03,42.805,6.029,-0.009,0.008,0.005,104.0,103.0,102.0,13.4,1505.2,333.0,-0.7,1.8,2471.101,13.29,0.012,311.6
2023-02-10T00:55:03,42.805,6.029,-0.036,0.033,-0.011,105.0,104.0,102.0,13.4,1505.2,334.7,-0.8,1.8,2471.106,13.29,0.048,312.5
2023-02-10T00:58:03,42.805,6.029,-0.011,0.015,-0.025,103.0,103.0,102.0,13.3,1505.2,337.0,-0.8,1.8,2471.166,13.29,0.018,323.7
2023-02-10T01:04:03,42.805,6.029,-0.004,0.006,0.012,104.0,105.0,104.0,13.4,1505.2,328.7,-0.8,1.8,2471.213,13.29,0.007,326.3
2023-02-10T01:07:03,42.805,6.029,-0.034,0.038,0.057,104.0,104.0,103.0,13.4,1505.2,336.1,-0.8,1.8,2471.179,13.29,0.05,318.2
2023-02-10T01:10:03,42.805,6.029,-0.019,0.004,0.005,104.0,102.0,102.0,13.4,1505.2,317.2,-0.8,1.9,2471.155,13.29,0.019,281.9
2023-02-10T01:13:03,42.805,6.029,-0.01,0.006,-0.013,103.0,103.0,101.0,13.4,1505.2,322.1,-0.8,1.8,2471.153,13.29,0.011,301.0
2023-02-10T01:16:03,42.805,6.029,0.007,-0.008,0.004,103.0,103.0,103.0,13.4,1505.2,337.3,-0.7,1.8,2471.131,13.29,0.01,138.8
2023-02-10T01:19:03,42.805,6.029,-0.019,-0.001,-0.016,103.0,103.0,101.0,13.4,1505.2,328.9,-0.7,1.8,2471.142,13.29,0.019,267.0
2023-02-10T01:22:03,42.805,6.029,-0.017,0.007,-0.045,103.0,105.0,101.0,13.3,1505.2,333.4,-0.7,1.8,2471.137,13.29,0.018,292.4
2023-02-10T01:25:03,42.805,6.029,-0.028,-0.001,-0.043,102.0,104.0,102.0,13.4,1505.2,318.5,-0.8,1.8,2471.135,13.29,0.028,268.0
2023-02-10T01:28:03,42.805,6.029,-0.011,0.01,0.021,102.0,103.0,103.0,13.3,1505.2,324.3,-0.8,1.8,2471.106,13.29,0.014,312.3
2023-02-10T01:31:03,42.805,6.029,-0.022,0.021,0.002,101.0,105.0,102.0,13.4,1505.2,327.1,-0.8,1.8,2471.134,13.29,0.03,313.7
2023-02-10T01:34:03,42.805,6.029,-0.025,-0.001,-0.022,103.0,103.0,102.0,13.3,1505.2,331.6,-0.8,1.8,2471.107,13.29,0.025,267.7
2023-02-10T01:37:03,42.805,6.029,-0.007,0.009,0.016,103.0,103.0,102.0,13.4,1505.2,337.5,-0.8,1.8,2471.129,13.29,0.011,322.1
2023-02-10T01:40:03,42.805,6.029,-0.007,-0.003,-0.005,103.0,104.0,102.0,13.4,1505.2,326.0,-0.7,1.9,2471.124,13.29,0.007,246.8
2023-02-10T01:43:03,42.805,6.029,-0.016,0.027,0.019,104.0,102.0,101.0,13.3,1505.2,319.2,-0.8,1.8,2471.078,13.29,0.031,329.3
2023-02-10T01:46:03,42.805,6.029,-0.029,0.022,0.027,102.0,103.0,101.0,13.4,1505.2,333.4,-0.8,1.8,2471.085,13.29,0.036,307.2
2023-02-10T01:49:03,42.805,6.029,-0.014,0.014,-0.01,103.0,102.0,103.0,13.4,1505.2,318.8,-0.7,1.8,2471.066,13.29,0.019,315.0
2023-02-10T01:52:03,42.805,6.029,-0.008,0.005,0.001,105.0,103.0,102.0,13.3,1505.2,339.7,-0.8,1.8,2471.065,13.29,0.009,302.0
2023-02-10T01:55:03,42.805,6.029,-0.02,-0.001,-0.018,104.0,104.0,101.0,13.4,1505.2,327.1,-0.7,1.8,2471.096,13.29,0.02,267.1
2023-02-10T01:58:03,42.805,6.029,-0.021,0.019,-0.027,104.0,105.0,102.0,13.4,1505.2,333.4,-0.8,1.8,2471.124,13.29,0.028,312.1
2023-02-10T02:04:03,42.805,6.029,-0.025,0.013,0.016,103.0,104.0,102.0,13.4,1505.2,329.6,-0.8,1.8,2471.154,13.29,0.028,297.5
2023-02-10T02:07:03,42.805,6.029,-0.027,0.023,0.018,104.0,102.0,102.0,13.4,1505.2,320.1,-0.8,1.8,2471.113,13.29,0.035,310.4
2023-02-10T02:10:03,42.805,6.029,-0.035,0.0,0.007,103.0,102.0,102.0,13.3,1505.2,325.6,-0.8,1.8,2471.127,13.29,0.035,270.0
2023-02-10T02:13:03,42.805,6.029,-0.004,0.009,-0.008,102.0,102.0,103.0,13.3,1505.2,330.0,-0.7,1.8,2471.11,13.29,0.009,336.0
2023-02-10T02:16:03,42.805,6.029,-0.025,0.013,0.035,104.0,103.0,101.0,13.3,1505.2,324.0,-0.8,1.8,2471.101,13.29,0.028,297.5
2023-02-10T02:19:03,42.805,6.029,-0.02,0.026,0.008,104.0,102.0,101.0,13.4,1505.2,325.0,-0.8,1.9,2471.113,13.29,0.032,322.4
2023-02-10T02:22:03,42.805,6.029,-0.012,0.007,0.023,102.0,103.0,102.0,13.4,1505.2,332.9,-0.8,1.8,2471.143,13.29,0.013,300.3
2023-02-10T02:25:03,42.805,6.029,-0.026,0.021,-0.004,103.0,103.0,102.0,13.4,1505.2,317.3,-0.8,1.8,2471.093,13.29,0.033,308.9
2023-02-10T02:28:03,42.805,6.029,-0.018,0.007,-0.026,103.0,103.0,102.0,13.3,1505.2,325.7,-0.8,1.9,2471.055,13.29,0.019,291.2
2023-02-10T02:31:03,42.805,6.029,0.008,-0.002,0.0,103.0,103.0,103.0,13.3,1505.2,315.5,-0.8,1.8,2471.067,13.29,0.008,104.0
2023-02-10T02:34:03,42.805,6.029,-0.009,0.013,-0.013,103.0,103.0,101.0,13.4,1505.2,328.4,-0.7,1.8,2471.048,13.29,0.015,325.3
2023-02-10T02:37:03,42.805,6.029,-0.022,-0.008,-0.025,105.0,103.0,102.0,13.4,1505.2,324.5,-0.8,1.8,2471.103,13.29,0.023,250.0
2023-02-10T02:40:03,42.805,6.029,0.0,0.002,-0.008,103.0,103.0,102.0,13.4,1505.2,339.1,-0.8,1.8,2471.069,13.29,0.002,0.0
2023-02-10T02:43:03,42.805,6.029,-0.017,0.016,0.003,102.0,102.0,102.0,13.3,1505.2,329.5,-0.8,1.8,2471.074,13.29,0.023,313.3
2023-02-10T02:46:03,42.805,6.029,-0.005,0.011,-0.022,105.0,102.0,103.0,13.4,1505.2,317.2,-0.8,1.8,2471.053,13.29,0.012,335.6
2023-02-10T02:49:03,42.805,6.029,-0.014,0.01,0.0,103.0,102.0,101.0,13.4,1505.2,323.8,-0.8,1.8,2471.073,13.29,0.017,305.5
2023-02-10T02:52:03,42.805,6.029,-0.006,0.008,0.03,104.0,104.0,101.0,13.4,1505.2,328.7,-0.8,1.8,2471.073,13.29,0.01,323.1
2023-02-10T02:55:03,42.805,6.029,-0.014,0.022,0.012,104.0,104.0,102.0,13.4,1505.2,333.0,-0.8,1.8,2471.05,13.29,0.026,327.5
2023-02-10T02:58:03,42.805,6.029,-0.016,0.013,0.01,104.0,103.0,102.0,13.4,1505.2,324.4,-0.7,1.8,2471.041,13.29,0.02,309.1
2023-02-10T03:04:03,42.805,6.029,-0.01,0.018,-0.003,104.0,104.0,103.0,13.3,1505.2,331.7,-0.8,1.8,2471.124,13.29,0.02,330.9
2023-02-10T03:07:03,42.805,6.029,-0.025,0.016,0.015,102.0,103.0,102.0,13.4,1505.2,328.7,-0.8,1.8,2471.105,13.29,0.029,302.6
2023-02-10T03:10:03,42.805,6.029,-0.012,0.018,0.006,103.0,104.0,102.0,13.3,1505.2,329.5,-0.8,1.8,2471.128,13.29,0.021,326.3
2023-02-10T03:13:03,42.805,6.029,-0.043,0.006,-0.03,104.0,102.0,103.0,13.4,1505.2,337.8,-0.8,1.8,2471.096,13.29,0.043,277.9
2023-02-10T03:16:03,42.805,6.029,-0.013,0.007,-0.005,102.0,104.0,103.0,13.4,1505.2,334.5,-0.8,1.8,2471.064,13.29,0.014,298.3
2023-02-10T03:19:03,42.805,6.029,-0.023,0.023,0.015,102.0,102.0,103.0,13.3,1505.2,338.3,-0.8,1.8,2471.092,13.29,0.032,315.0
2023-02-10T03:22:03,42.805,6.029,-0.019,0.004,-0.001,103.0,102.0,102.0,13.4,1505.2,333.4,-0.8,1.8,2471.044,13.29,0.019,281.9
2023-02-10T03:25:03,42.805,6.029,-0.011,-0.007,-0.033,104.0,102.0,103.0,13.4,1505.2,320.9,-0.8,1.8,2471.079,13.29,0.013,237.5
2023-02-10T03:28:03,42.805,6.029,-0.009,0.0,-0.014,104.0,102.0,101.0,13.4,1505.2,331.9,-0.8,1.8,2471.068,13.29,0.009,270.0
2023-02-10T03:31:03,42.805,6.029,0.0,0.006,0.008,103.0,103.0,102.0,13.4,1505.2,314.4,-0.8,1.8,2471.057,13.29,0.006,0.0
2023-02-10T03:34:03,42.805,6.029,0.003,0.022,0.014,102.0,105.0,103.0,13.3,1505.2,325.2,-0.8,1.8,2471.046,13.29,0.022,7.8
2023-02-10T03:37:03,42.805,6.029,-0.017,0.005,-0.022,105.0,103.0,102.0,13.4,1505.2,320.9,-0.8,1.8,2471.057,13.29,0.017,286.4
2023-02-10T03:40:03,42.805,6.029,-0.01,0.007,-0.015,102.0,104.0,101.0,13.4,1505.2,323.6,-0.8,1.8,2471.053,13.29,0.012,305.0
2023-02-10T03:43:03,42.805,6.029,-0.03,0.0,-0.014,104.0,103.0,101.0,13.4,1505.2,324.8,-0.8,1.8,2471.029,13.29,0.03,270.0
2023-02-10T03:46:03,42.805,6.029,-0.006,0.011,-0.005,104.0,104.0,102.0,13.4,1505.2,336.1,-0.8,1.8,2471.041,13.29,0.012,331.4
2023-02-10T03:49:03,42.805,6.029,-0.002,0.012,-0.007,103.0,103.0,103.0,13.3,1505.2,315.5,-0.8,1.8,2471.073,13.29,0.012,350.5
2023-02-10T03:52:03,42.805,6.029,0.001,-0.004,-0.02,104.0,102.0,102.0,13.3,1505.2,318.7,-0.8,1.8,2471.11,13.29,0.004,166.0
2023-02-10T03:55:03,42.805,6.029,0.001,0.01,0.029,103.0,104.0,102.0,13.4,1505.2,330.1,-0.8,1.8,2471.049,13.29,0.01,5.7
2023-02-10T03:58:03,42.805,6.029,-0.006,-0.014,-0.007,103.0,106.0,102.0,13.4,1505.2,320.7,-0.8,1.8,2471.071,13.29,0.015,203.2
2023-02-10T04:04:03,42.805,6.029,-0.003,0.0,-0.015,103.0,103.0,102.0,13.4,1505.2,324.9,-0.8,1.8,2471.079,13.29,0.003,270.0
2023-02-10T04:07:03,42.805,6.029,-0.01,0.03,0.022,103.0,103.0,102.0,13.4,1505.2,335.6,-0.8,1.8,2471.125,13.29,0.031,341.6
2023-02-10T04:10:03,42.805,6.029,0.008,0.006,0.01,103.0,103.0,102.0,13.3,1505.2,321.8,-0.8,1.9,2471.094,13.29,0.01,53.1
2023-02-10T04:13:03,42.805,6.029,-0.007,-0.007,-0.006,103.0,105.0,102.0,13.4,1505.2,334.3,-0.7,1.8,2471.088,13.29,0.009,225.0
2023-02-10T04:16:03,42.805,6.029,-0.004,0.017,0.02,104.0,103.0,101.0,13.4,1505.2,316.0,-0.8,1.8,2471.064,13.29,0.017,346.8
2023-02-10T04:19:03,42.805,6.029,-0.023,0.02,0.02,102.0,103.0,102.0,13.4,1505.2,317.6,-0.7,1.8,2471.109,13.29,0.03,311.0
2023-02-10T04:22:03,42.805,6.029,0.0,-0.005,0.017,103.0,104.0,102.0,13.4,1505.2,317.7,-0.8,1.8,2471.064,13.29,0.005,180.0
2023-02-10T04:25:03,42.805,6.029,-0.001,0.013,-0.007,103.0,102.0,102.0,13.3,1505.2,333.8,-0.8,1.9,2471.087,13.29,0.013,355.6
2023-02-10T04:28:03,42.805,6.029,-0.016,0.005,-0.019,104.0,102.0,102.0,13.3,1505.2,320.2,-0.8,1.8,2471.056,13.29,0.016,287.4
2023-02-10T04:31:03,42.805,6.029,-0.009,0.006,-0.025,102.0,102.0,102.0,13.4,1505.2,322.7,-0.8,1.8,2471.067,13.29,0.01,303.7
2023-02-10T04:34:03,42.805,6.029,0.004,0.005,0.009,103.0,104.0,102.0,13.4,1505.2,325.5,-0.8,1.9,2471.054,13.29,0.006,38.7
2023-02-10T04:37:03,42.805,6.029,-0.021,0.038,0.038,103.0,102.0,103.0,13.4,1505.2,328.5,-0.8,1.8,2471.081,13.29,0.043,331.1
2023-02-10T04:40:03,42.805,6.029,-0.001,0.018,0.029,103.0,104.0,102.0,13.4,1505.2,323.1,-0.8,1.8,2471.056,13.29,0.018,356.8
2023-02-10T04:43:03,42.805,6.029,-0.023,0.008,0.033,102.0,104.0,102.0,13.4,1505.2,322.6,-0.8,1.8,2471.082,13.29,0.024,289.2
2023-02-10T04:46:03,42.805,6.029,0.004,-0.001,-0.03,102.0,104.0,101.0,13.4,1505.2,331.2,-0.7,1.8,2471.073,13.29,0.004,104.0
2023-02-10T04:49:03,42.805,6.029,-0.009,-0.004,-0.036,103.0,102.0,102.0,13.4,1505.2,324.6,-0.8,1.8,2471.024,13.29,0.009,246.0
2023-02-10T04:52:03,42.805,6.029,0.001,0.018,-0.009,103.0,102.0,101.0,13.3,1505.2,336.1,-0.8,1.8,2471.077,13.29,0.018,3.2
2023-02-10T04:55:03,42.805,6.029,0.0,0.015,0.019,103.0,104.0,102.0,13.4,1505.2,323.9,-0.8,1.8,2471.086,13.29,0.015,0.0
2023-02-10T04:58:03,42.805,6.029,-0.012,0.013,0.021,103.0,103.0,102.0,13.4,1505.2,329.6,-0.8,1.8,2471.063,13.29,0.017,317.3
2023-02-10T05:04:03,42.805,6.029,-0.029,0.016,-0.011,103.0,104.0,103.0,13.3,1505.2,325.0,-0.8,1.8,2471.111,13.29,0.033,298.9
2023-02-10T05:07:03,42.805,6.029,-0.009,0.018,0.031,102.0,103.0,102.0,13.3,1505.2,328.2,-0.8,1.8,2471.108,13.29,0.02,333.4
2023-02-10T05:10:03,42.805,6.029,-0.007,0.022,0.015,104.0,102.0,103.0,13.3,1505.2,330.9,-0.8,1.8,2471.097,13.29,0.023,342.4
2023-02-10T05:13:03,42.805,6.029,-0.006,0.027,0.028,104.0,103.0,101.0,13.3,1505.2,332.5,-0.8,1.8,2471.095,13.29,0.027,347.5
2023-02-10T05:16:03,42.805,6.029,-0.01,0.011,-0.004,103.0,103.0,101.0,13.4,1505.2,322.5,-0.8,1.8,2471.071,13.29,0.014,317.7
2023-02-10T05:19:03,42.805,6.029,-0.023,-0.005,-0.021,102.0,104.0,102.0,13.3,1505.2,329.8,-0.8,1.8,2471.093,13.29,0.023,257.7
2023-02-10T05:22:03,42.805,6.029,-0.015,0.013,-0.017,103.0,104.0,102.0,13.3,1505.2,324.1,-0.8,1.8,2471.066,13.29,0.019,310.9
2023-02-10T05:25:03,42.805,6.029,-0.017,0.004,-0.002,104.0,104.0,102.0,13.3,1505.2,337.8,-0.8,1.8,2471.09,13.29,0.017,283.2
2023-02-10T05:28:03,42.805,6.029,0.013,-0.001,-0.002,103.0,103.0,102.0,13.4,1505.2,337.4,-0.8,1.8,2471.075,13.29,0.013,94.4
2023-02-10T05:31:03,42.805,6.029,0.009,0.008,-0.014,103.0,104.0,102.0,13.4,1505.2,332.1,-0.8,1.8,2471.113,13.29,0.012,48.4
2023-02-10T05:34:03,42.805,6.029,-0.015,0.018,-0.002,102.0,103.0,102.0,13.3,1505.2,325.0,-0.8,1.8,2471.069,13.29,0.023,320.2
2023-02-10T05:37:03,42.805,6.029,-0.022,0.006,0.01,105.0,103.0,102.0,13.4,1505.2,328.2,-0.8,1.8,2471.097,13.29,0.022,285.3
2023-02-10T05:40:03,42.805,6.029,-0.022,0.009,0.0,103.0,103.0,101.0,13.3,1505.2,328.4,-0.8,1.8,2471.089,13.29,0.023,292.2
2023-02-10T05:43:03,42.805,6.029,-0.004,-0.003,-0.024,104.0,103.0,101.0,13.3,1505.2,318.4,-0.8,1.8,2471.092,13.29,0.005,233.1
2023-02-10T05:46:03,42.805,6.029,-0.007,0.017,0.014,103.0,103.0,102.0,13.4,1505.2,325.0,-0.8,1.8,2471.091,13.29,0.018,337.6
2023-02-10T05:49:03,42.805,6.029,-0.016,0.006,0.022,103.0,103.0,102.0,13.4,1505.2,315.5,-0.8,1.8,2471.071,13.29,0.017,290.6
2023-02-10T05:52:03,42.805,6.029,-0.021,0.009,-0.006,104.0,103.0,102.0,13.4,1505.2,325.2,-0.7,1.8,2471.099,13.29,0.022,293.2
2023-02-10T05:55:03,42.805,6.029,-0.008,0.004,-0.007,102.0,103.0,102.0,13.3,1505.2,315.0,-0.8,1.8,2471.05,13.29,0.008,296.6
2023-02-10T05:58:03,42.805,6.029,-0.01,0.018,0.008,104.0,104.0,102.0,13.4,1505.2,339.7,-0.7,1.8,2471.065,13.29,0.02,330.9
2023-02-10T06:04:03,42.805,6.029,-0.011,0.012,-0.015,102.0,103.0,101.0,13.4,1505.2,332.9,-0.8,1.8,2471.152,13.29,0.016,317.5
2023-02-10T06:07:03,42.805,6.029,-0.007,0.006,0.028,103.0,104.0,101.0,13.4,1505.2,317.2,-0.7,1.8,2471.098,13.29,0.009,310.6
2023-02-10T06:10:03,42.805,6.029,-0.01,0.0,-0.01,101.0,105.0,103.0,13.4,1505.2,323.6,-0.8,1.8,2471.141,13.29,0.01,270.0
2023-02-10T06:13:03,42.805,6.029,-0.005,0.021,0.0,103.0,103.0,102.0,13.3,1505.2,327.0,-0.8,1.9,2471.134,13.29,0.021,346.6
2023-02-10T06:16:03,42.805,6.029,0.006,0.003,0.015,103.0,104.0,102.0,13.4,1505.2,324.7,-0.8,1.8,2471.13,13.29,0.006,63.4
2023-02-10T06:19:03,42.805,6.029,0.002,-0.009,-0.003,104.0,103.0,102.0,13.4,1505.2,330.2,-0.8,1.8,2471.118,13.29,0.009,167.5
2023-02-10T06:22:03,42.805,6.029,0.004,-0.01,0.022,104.0,104.0,102.0,13.4,1505.2,336.8,-0.7,1.8,2471.145,13.29,0.01,158.2
2023-02-10T06:25:03,42.805,6.029,-0.008,0.017,0.029,104.0,102.0,102.0,13.3,1505.2,330.1,-0.8,1.8,2471.1,13.29,0.018,334.8
2023-02-10T06:28:03,42.805,6.029,-0.007,-0.005,0.007,104.0,102.0,102.0,13.3,1505.2,318.4,-0.7,1.8,2471.13,13.29,0.008,234.5
2023-02-10T06:31:03,42.805,6.029,-0.008,-0.002,0.0,104.0,103.0,102.0,13.4,1505.2,324.1,-0.8,1.8,2471.116,13.29,0.008,256.0
2023-02-10T06:34:03,42.805,6.029,-0.034,0.007,-0.021,102.0,103.0,102.0,13.4,1505.2,316.1,-0.8,1.8,2471.132,13.29,0.034,281.6
2023-02-10T06:37:03,42.805,6.029,0.015,-0.002,0.02,104.0,103.0,102.0,13.4,1505.2,322.9,-0.8,1.8,2471.154,13.29,0.015,97.6
2023-02-10T06:40:03,42.805,6.029,-0.019,-0.016,-0.007,103.0,103.0,101.0,13.4,1505.2,315.0,-0.7,1.9,2471.111,13.29,0.024,229.9
2023-02-10T06:43:03,42.805,6.029,-0.014,0.011,-0.008,104.0,102.0,102.0,13.4,1505.2,321.9,-0.8,1.8,2471.14,13.29,0.017,308.2
2023-02-10T06:46:03,42.805,6.029,-0.005,-0.01,-0.019,103.0,103.0,102.0,13.3,1505.2,326.0,-0.8,1.8,2471.147,13.29,0.011,206.6
2023-02-10T06:49:03,42.805,6.029,0.007,0.011,0.013,103.0,104.0,102.0,13.4,1505.2,323.1,-0.8,1.8,2471.13,13.29,0.013,32.5
2023-02-10T06:52:03,42.805,6.029,-0.008,0.012,0.005,103.0,102.0,102.0,13.3,1505.2,330.8,-0.7,1.8,2471.18,13.29,0.014,326.3
2023-02-10T06:55:03,42.805,6.029,0.007,0.016,0.012,103.0,103.0,102.0,13.4,1505.2,333.4,-0.8,1.8,2471.125,13.29,0.017,23.6
2023-02-10T06:58:03,42.805,6.029,-0.012,0.013,-0.018,103.0,105.0,102.0,13.4,1505.2,322.6,-0.8,1.8,2471.158,13.29,0.017,317.3
2023-02-10T07:04:03,42.805,6.029,-0.011,-0.001,0.023,103.0,102.0,102.0,13.3,1505.2,332.9,-0.8,1.8,2471.17,13.29,0.011,264.8
2023-02-10T07:07:03,42.805,6.029,-0.016,0.003,-0.013,103.0,103.0,101.0,13.3,1505.2,338.9,-0.7,1.8,2471.202,13.29,0.016,280.6
2023-02-10T07:10:03,42.805,6.029,-0.004,-0.001,-0.035,103.0,103.0,102.0,13.4,1505.2,325.0,-0.8,1.8,2471.21,13.29,0.004,256.0
2023-02-10T07:13:03,42.805,6.029,-0.02,0.002,0.0,104.0,104.0,101.0,13.4,1505.2,325.2,-0.8,1.8,2471.173,13.29,0.02,275.7
2023-02-10T07:16:03,42.805,6.029,-0.017,0.033,0.015,104.0,103.0,102.0,13.4,1505.2,327.6,-0.8,1.8,2471.184,13.29,0.037,332.7
2023-02-10T07:19:03,42.805,6.029,0.007,0.016,0.008,102.0,103.0,101.0,13.4,1505.2,317.8,-0.8,1.8,2471.174,13.29,0.017,23.6
2023-02-10T07:22:03,42.805,6.029,-0.018,0.018,-0.011,103.0,103.0,101.0,13.3,1505.2,330.4,-0.7,1.8,2471.166,13.29,0.025,315.0
2023-02-10T07:25:03,42.805,6.029,0.001,0.014,-0.018,103.0,103.0,102.0,13.3,1505.2,330.8,-0.7,1.8,2471.154,13.29,0.014,4.1
2023-02-10T07:28:03,42.805,6.029,0.0,0.0,0.013,104.0,103.0,103.0,13.4,1505.2,325.7,-0.7,1.8,2471.152,13.29,0.0,0.0
2023-02-10T07:31:03,42.805,6.029,0.012,0.0,0.002,103.0,102.0,102.0,13.4,1505.2,328.8,-0.7,1.8,2471.182,13.29,0.012,90.0
2023-02-10T07:34:03,42.805,6.029,-0.004,0.015,0.018,101.0,104.0,100.0,13.4,1505.2,324.2,-0.8,1.8,2471.201,13.29,0.015,345.1
2023-02-10T07:37:03,42.805,6.029,-0.013,0.004,0.011,104.0,104.0,101.0,13.4,1505.2,317.7,-0.8,1.8,2471.217,13.29,0.013,287.1
2023-02-10T07:40:03,42.805,6.029,0.016,-0.007,-0.029,103.0,102.0,102.0,13.3,1505.2,324.5,-0.8,1.8,2471.19,13.29,0.017,113.6
2023-02-10T07:43:03,42.805,6.029,0.003,0.001,-0.004,103.0,103.0,102.0,13.3,1505.2,333.4,-0.8,1.8,2471.182,13.29,0.003,71.6
2023-02-10T07:46:03,42.805,6.029,-0.027,0.013,-0.004,103.0,102.0,102.0,13.4,1505.2,328.2,-0.8,1.8,2471.183,13.29,0.029,295.7
2023-02-10T07:49:03,42.805,6.029,0.009,0.015,-0.007,103.0,103.0,101.0,13.4,1505.2,316.0,-0.7,1.8,2471.203,13.29,0.017,31.0
2023-02-10T07:52:03,42.805,6.029,-0.003,0.009,0.008,104.0,103.0,102.0,13.4,1505.2,328.7,-0.7,1.8,2471.198,13.29,0.009,341.6
2023-02-10T07:55:03,42.805,6.029,-0.002,-0.017,-0.042,103.0,104.0,102.0,13.4,1505.2,323.7,-0.7,1.8,2471.198,13.29,0.017,186.7
2023-02-10T07:58:03,42.805,6.029,-0.02,0.005,-0.03,104.0,103.0,102.0,13.3,1505.2,331.6,-0.8,1.8,2471.193,13.29,0.02,284.0
2023-02-10T08:04:03,42.805,6.029,-0.02,0.004,0.012,104.0,103.0,102.0,13.4,1505.2,329.5,-0.8,1.8,2471.251,13.29,0.02,281.3
2023-02-10T08:07:03,42.805,6.029,0.008,0.011,0.0,104.0,102.0,101.0,13.4,1505.2,326.5,-0.8,1.8,2471.288,13.29,0.013,36.0
2023-02-10T08:10:03,42.805,6.029,0.003,0.021,0.0,102.0,103.0,102.0,13.4,1505.2,324.2,-0.8,1.8,2471.233,13.29,0.021,8.1
2023-02-10T08:13:03,42.805,6.029,-0.017,0.0,-0.011,103.0,103.0,101.0,13.4,1505.2,338.0,-0.8,1.8,2471.206,13.29,0.017,270.0
2023-02-10T08:16:03,42.805,6.029,-0.009,0.018,-0.008,102.0,103.0,102.0,13.3,1505.2,324.2,-0.7,1.8,2471.204,13.29,0.02,333.4
2023-02-10T08:19:03,42.805,6.029,-0.008,-0.001,0.003,102.0,103.0,102.0,13.3,1505.2,334.6,-0.8,1.8,2471.256,13.29,0.008,262.9
2023-02-10T08:22:03,42.805,6.029,-0.001,0.008,-0.009,103.0,103.0,102.0,13.4,1505.2,324.6,-0.8,1.8,2471.257,13.29,0.008,352.9
2023-02-10T08:25:03,42.805,6.029,0.005,0.016,0.0,103.0,103.0,102.0,13.4,1505.2,333.4,-0.8,1.8,2471.238,13.29,0.016,17.4
2023-02-10T08:28:03,42.805,6.029,-0.005,0.02,0.011,103.0,103.0,101.0,13.4,1505.2,339.5,-0.7,1.8,2471.244,13.29,0.02,346.0
2023-02-10T08:31:03,42.805,6.029,-0.002,-0.012,-0.017,103.0,102.0,101.0,13.3,1505.2,318.3,-0.7,1.8,2471.242,13.29,0.012,189.5
2023-02-10T08:34:03,42.805,6.029,0.009,0.006,-0.003,103.0,102.0,102.0,13.4,1505.2,334.3,-0.7,1.8,2471.204,13.29,0.01,56.3
2023-02-10T08:37:03,42.805,6.029,-0.021,-0.003,-0.026,104.0,102.0,101.0,13.3,1505.2,327.4,-0.8,1.8,2471.268,13.29,0.021,261.9
2023-02-10T08:40:03,42.805,6.029,-0.002,0.006,-0.002,103.0,103.0,101.0,13.4,1505.2,318.3,-0.8,1.8,2471.25,13.29,0.006,341.6
2023-02-10T08:43:03,42.805,6.029,-0.016,0.016,-0.004,102.0,103.0,101.0,13.4,1505.2,316.1,-0.8,1.8,2471.242,13.29,0.022,315.0
2023-02-10T08:46:03,42.805,6.029,-0.006,0.014,0.002,103.0,103.0,102.0,13.4,1505.2,326.5,-0.8,1.8,2471.243,13.29,0.015,336.8
2023-02-10T08:49:03,42.805,6.029,-0.008,0.007,-0.003,103.0,104.0,101.0,13.4,1505.2,318.1,-0.7,1.8,2471.277,13.29,0.01,311.2
2023-02-10T08:52:03,42.805,6.029,-0.023,0.003,0.019,104.0,103.0,102.0,13.4,1505.2,318.0,-0.8,1.8,2471.246,13.29,0.023,277.4
2023-02-10T08:55:03,42.805,6.029,-0.011,0.019,0.02,102.0,103.0,101.0,13.4,1505.2,324.2,-0.7,1.8,2471.288,13.29,0.021,329.9
2023-02-10T08:58:03,42.805,6.029,0.004,0.007,0.0,103.0,104.0,101.0,13.4,1505.2,333.0,-0.8,1.8,2471.276,13.29,0.008,29.7
2023-02-10T09:04:03,42.805,6.029,-0.022,-0.004,-0.019,104.0,103.0,104.0,13.3,1505.2,323.6,-0.8,1.8,2471.281,13.29,0.022,259.7
2023-02-10T09:07:03,42.805,6.029,-0.006,0.028,0.019,103.0,103.0,102.0,13.3,1505.2,320.7,-0.8,1.8,2471.304,13.29,0.028,347.9
2023-02-10T09:10:03,42.805,6.029,0.0,-0.008,0.001,105.0,104.0,100.0,13.4,1505.2,319.3,-0.8,1.8,2471.263,13.29,0.008,180.0
2023-02-10T09:13:03,42.805,6.029,-0.023,0.015,0.012,103.0,104.0,102.0,13.4,1505.2,315.0,-0.8,1.8,2471.295,13.29,0.027,303.1
2023-02-10T09:16:03,42.805,6.029,0.002,-0.015,-0.026,102.0,103.0,102.0,13.4,1505.2,330.8,-0.8,1.8,2471.248,13.29,0.015,172.4
2023-02-10T09:19:03,42.805,6.029,-0.009,-0.003,0.021,103.0,104.0,101.0,13.4,1505.2,320.4,-0.7,1.8,2471.281,13.29,0.009,251.6
2023-02-10T09:22:03,42.805,6.029,-0.009,0.017,0.007,103.0,102.0,102.0,13.4,1505.2,337.6,-0.8,1.8,2471.275,13.29,0.019,332.1
2023-02-10T09:25:03,42.805,6.029,0.015,0.005,0.017,103.0,103.0,101.0,13.4,1505.2,337.7,-0.8,1.8,2471.241,13.29,0.015,71.6
2023-02-10T09:28:03,42.805,6.029,-0.02,0.017,-0.029,104.0,103.0,103.0,13.3,1505.2,328.2,-0.7,1.8,2471.297,13.29,0.026,310.4
2023-02-10T09:31:03,42.805,6.029,-0.019,0.007,-0.022,102.0,103.0,102.0,13.3,1505.2,319.1,-0.7,1.8,2471.285,13.29,0.02,290.2
2023-02-10T09:34:03,42.805,6.029,-0.003,0.013,0.003,103.0,103.0,102.0,13.3,1505.2,325.0,-0.8,1.8,2471.233,13.29,0.013,347.0
2023-02-10T09:37:03,42.805,6.029,0.001,0.008,0.006,102.0,103.0,102.0,13.4,1505.2,325.8,-0.7,1.8,2471.278,13.29,0.008,7.1
2023-02-10T09:40:03,42.805,6.029,-0.013,0.013,0.004,103.0,102.0,101.0,13.4,1505.2,320.8,-0.7,1.8,2471.217,13.29,0.018,315.0
2023-02-10T09:43:03,42.805,6.029,-0.005,0.003,0.0,102.0,103.0,102.0,13.4,1505.2,320.4,-0.8,1.8,2471.254,13.29,0.005,301.0
2023-02-10T09:46:03,42.805,6.029,-0.014,0.005,-0.004,103.0,102.0,102.0,13.4,1505.2,333.8,-0.8,1.8,2471.229,13.3,0.014,289.6
2023-02-10T09:49:03,42.805,6.029,-0.01,0.002,0.0,103.0,103.0,101.0,13.4,1505.2,334.7,-0.8,1.8,2471.221,13.3,0.01,281.3
2023-02-10T09:52:03,42.805,6.029,-0.009,0.027,0.017,103.0,104.0,101.0,13.4,1505.2,338.3,-0.8,1.8,2471.229,13.3,0.028,341.6
2023-02-10T09:55:03,42.805,6.029,0.008,0.003,-0.009,102.0,103.0,103.0,13.4,1505.2,320.7,-0.8,1.9,2471.273,13.29,0.008,69.4
2023-02-10T09:58:03,42.805,6.029,0.005,0.025,0.007,103.0,103.0,101.0,13.4,1505.2,332.5,-0.8,1.8,2471.266,13.29,0.025,11.3